[[{"header":{"parameterUnit":"m.s-1","parameterCategory":1,"la1":30.2991,"la2":30.254,"lo1":-89.0895,"lo2":-89.0444,"dy":0.0017,"dx":0.0017,"nx":28,"ny":28,"refTime":"2024-04-28T03:00:00:Z","depth":0,"parameterNumber":2,"parameterNumberName":"U-component_of_WINDS"},"data":[0,0,0,0,0,0,0,0,0,0,0,0,0,0,0,0,0,0,0,0,0,0,0,0,0,0,0,0,0,0,0,0,0,0,0,0,0,0,0,0,0,0,0,0,0,0,0,0,0,0,0,0,0,0,0,0,0,0,-8.157,-8.1571,0,-8.1647,-8.1648,-8.1649,-8.1609,-8.1607,-8.1605,-8.1603,-8.1677,-8.1681,-8.1685,0,0,0,0,0,0,0,0,0,0,0,0,0,-8.1387,-8.139,-8.157,-8.1571,-8.1572,-8.1647,-8.1648,-8.1649,-8.1609,-8.1607,-8.1604,-8.1602,-8.1676,-8.1681,-8.1685,0,0,0,0,0,0,0,0,0,0,0,0,0,-8.1465,-8.1391,-8.157,-8.1562,-8.1562,-8.1647,-8.1648,-8.165,-8.161,-8.1607,-8.1604,-8.1601,-8.1675,-8.168,-8.1686,-8.1783,0,0,-8.1704,-8.1706,0,0,0,0,0,0,0,0,-8.1461,-8.1472,-8.1562,-8.1562,-8.1562,-8.1616,-8.1611,-8.1694,-8.1611,-8.1591,-8.1603,-8.1599,-8.1659,-8.1666,-8.1687,-8.1787,-8.179,-8.1704,-8.1708,-8.171,-8.1712,0,0,0,0,0,0,0,-8.1455,-8.1468,-8.1601,-8.1563,-8.1564,-8.1553,-8.1561,-8.1626,-8.1641,-8.1593,-8.159,-8.16,-8.1659,-8.1681,-8.1688,-8.1791,-8.1704,-8.1709,-8.1713,-8.1715,-8.1975,-8.1979,0,0,0,0,0,0,-8.1451,-8.1464,-8.1598,-8.1603,-8.1503,-8.1559,-8.1568,-8.1602,-8.164,-8.1644,-8.1603,-8.1598,-8.1673,-8.1682,-8.1691,-8.1807,-8.171,-8.1716,-8.1719,-8.1972,-8.1976,-8.198,0,0,0,0,0,0,-8.1447,-8.1463,-8.1595,-8.1533,-8.1549,-8.1565,-8.1604,-8.1605,-8.1627,-8.1648,-8.165,-8.1623,-8.1671,-8.1683,-8.1761,-8.1809,-8.1718,-8.1724,-8.1968,-8.1973,-8.1978,-8.2039,0,0,0,0,0,0,-8.1442,-8.1462,-8.1499,-8.1534,-8.1553,-8.1665,-8.1607,-8.1608,-8.1638,-8.1633,-8.1668,-8.1671,-8.1669,-8.1753,-8.1767,-8.1815,-8.1728,-8.1964,-8.197,-8.1976,-8.2033,-8.2046,-8.2057,0,0,0,0,0,-8.1435,-8.1512,-8.1501,-8.1518,-8.16,-8.1667,-8.1678,-8.1676,-8.1642,-8.1679,-8.1693,-8.167,-8.1802,-8.1761,-8.1777,-8.1827,-8.1961,-8.1968,-8.1976,-8.2027,-8.2043,-8.2057,0,0,0,0,0,0,-8.148,-8.1516,-8.1505,-8.1595,-8.1629,-8.1661,-8.1707,-8.1693,-8.1735,-8.1728,-8.1723,-8.1731,-8.1813,-8.1828,-8.1782,-8.1924,-8.1876,-8.1887,-8.191,-8.1925,-8.1937,-8.1929,-8.1733,0,0,0,0,0,-8.1501,-8.1554,-8.1583,-8.166,-8.1678,-8.169,-8.1719,-8.1716,-8.175,-8.1763,-8.1782,-8.1815,-8.1864,-8.1896,-8.1942,-8.2037,-8.2043,-8.208,-8.2092,-8.2101,-8.211,-8.2161,-8.2177,-8.2005,-8.2005,-8.2005,0,0,-8.1543,-8.157,-8.1603,-8.167,-8.1695,-8.1749,-8.1702,-8.1761,-8.1801,-8.1771,-8.1846,-8.1863,-8.1899,-8.1986,-8.2025,-8.2001,-8.216,-8.2111,-8.2119,-8.2122,-8.217,-8.2186,-8.2201,-8.201,-8.2009,-8.2009,0,0,-8.1647,-8.1674,-8.1741,-8.1769,-8.1809,-8.1817,-8.1834,-8.1869,-8.1879,-8.1955,-8.1934,-8.1982,-8.2067,-8.2094,-8.2118,-8.2238,-8.2218,-8.2254,-8.2314,-8.2364,-8.2377,-8.2389,-8.243,-8.2445,-8.2263,-8.2263,-8.2263,0,-8.1694,-8.1776,-8.1777,-8.1838,-8.1868,-8.1848,-8.1915,-8.1941,-8.1994,-8.2015,-8.1989,-8.2096,-8.2119,-8.2212,-8.2242,-8.2263,-8.2281,-8.2247,-8.2376,-8.2388,-8.2399,-8.2438,-8.2453,-8.2267,-8.2267,-8.2266,-8.2266,0,-8.1831,-8.1888,-8.1938,-8.1991,-8.2027,-8.2091,-8.2102,-8.2138,-8.2133,-8.2144,-8.2222,-8.225,-8.2302,-8.2325,-8.2319,-8.2417,-8.2401,-8.2376,-8.2327,-8.2419,-8.2455,-8.247,-8.2273,-8.2271,-8.227,-8.2269,0,0,-8.196,-8.2017,-8.2035,-8.2059,-8.2104,-8.2148,-8.2212,-8.2265,-8.2295,-8.2334,-8.2387,-8.2461,-8.2439,-8.2467,-8.2465,-8.251,-8.2601,-8.2479,-8.2479,-8.2498,-8.271,-8.2726,-8.2743,-8.259,-8.2593,-8.2596,-8.2706,0,-8.2065,-8.2178,-8.2183,-8.2285,-8.2337,-8.2321,-8.2377,-8.2411,-8.2424,-8.247,-8.2485,-8.2537,-8.2505,-8.2522,-8.2565,-8.2581,-8.2643,-8.2573,-8.2637,-8.2639,-8.2624,-8.2763,-8.278,-8.2882,-8.272,-8.2723,-8.2725,0,-8.2202,-8.2247,-8.2355,-8.2394,-8.2417,-8.2467,-8.2516,-8.2561,-8.26,-8.2606,-8.2641,-8.2633,-8.2698,-8.2651,-8.274,-8.2693,-8.272,-8.2732,-8.2736,-8.2739,-8.2684,-8.2766,-8.2915,-8.2929,-8.2747,-8.2746,-8.2744,0,-8.2283,-8.2371,-8.2447,-8.2469,-8.2517,-8.2552,-8.2574,-8.261,-8.2642,-8.2685,-8.2706,-8.2757,-8.2783,-8.2823,-8.2829,-8.2795,-8.2919,-8.2872,-8.2924,-8.2924,-8.2947,-8.2945,-8.3099,-8.2971,-8.2971,-8.297,-8.297,0,-8.2398,-8.2464,-8.2484,-8.253,-8.2604,-8.261,-8.2682,-8.2701,-8.2734,-8.2783,-8.2774,-8.282,-8.2827,-8.2876,-8.2882,-8.2954,-8.2967,-8.2973,-8.2973,-8.2972,-8.2971,-8.2986,-8.2978,-8.2974,-8.2974,-8.2973,-8.2972,0,-8.2498,-8.2514,-8.2596,-8.2636,-8.2648,-8.2701,-8.2735,-8.2779,-8.2794,-8.2856,-8.2871,-8.2893,-8.295,-8.2962,-8.3028,-8.3032,-8.3118,-8.3113,-8.3105,-8.3103,-8.3154,-8.3148,-8.3321,-8.3343,-8.3203,-8.3205,-8.3206,0,-8.2568,-8.2619,-8.2666,-8.2699,-8.2723,-8.2777,-8.281,-8.2819,-8.2854,-8.2904,-8.2942,-8.2998,-8.3043,-8.3134,-8.3155,-8.3207,-8.3201,-8.3258,-8.3208,-8.3205,-8.3198,-8.3194,-8.3198,-8.3266,-8.3267,-8.3269,-8.327,0,-8.2691,-8.2697,-8.2746,-8.28,-8.2841,-8.2882,-8.2922,-8.295,-8.2964,-8.3004,-8.3063,-8.3098,-8.3168,-8.3223,-8.3276,-8.3297,-8.3285,-8.3287,-8.3301,-8.3298,-8.329,-8.3293,-8.3127,-8.3281,-8.328,-8.3279,-8.3278,-8.3278,-8.2776,-8.2821,-8.2861,-8.2917,-8.2949,-8.2987,-8.3031,-8.3052,-8.3102,-8.316,-8.3163,-8.3227,-8.3266,-8.3335,-8.336,-8.341,-8.3392,-8.3413,-8.3418,-8.3422,-8.3425,-8.3286,-8.342,-8.342,-8.3419,-8.3419,-8.3419,0,-8.2896,-8.2922,-8.2974,-8.3031,-8.3075,-8.3065,-8.3109,-8.3146,-8.3202,-8.3241,-8.3286,-8.3354,-8.3409,-8.3437,-8.3491,-8.3525,-8.3521,-8.3539,-8.3534,-8.3539,-8.344,-8.3421,-8.3541,-8.3541,-8.3541,-8.3541,-8.3541,-8.3541,-8.2963,-8.3038,-8.305,-8.3141,-8.3166,-8.323,-8.3256,-8.3291,-8.3322,-8.3399,-8.3445,-8.3463,-8.3497,-8.3555,-8.3604,-8.3611,-8.363,-8.365,-8.3653,-8.3559,-8.3546,-8.3534,-8.3516,-8.3655,-8.3655,-8.3748,-8.3749,-8.375]},{"header":{"parameterUnit":"m.s-1","parameterCategory":1,"la1":30.2991,"la2":30.254,"lo1":-89.0895,"lo2":-89.0444,"dy":0.0017,"dx":0.0017,"nx":28,"ny":28,"refTime":"2024-04-28T03:00:00:Z","depth":0,"parameterNumber":3,"parameterNumberName":"V-component_of_WINDS"},"data":[0,0,0,0,0,0,0,0,0,0,0,0,0,0,0,0,0,0,0,0,0,0,0,0,0,0,0,0,0,0,0,0,0,0,0,0,0,0,0,0,0,0,0,0,0,0,0,0,0,0,0,0,0,0,0,0,0,0,5.3796,5.3796,0,5.3798,5.3798,5.3798,5.3807,5.3808,5.3808,5.3808,5.3804,5.3804,5.3804,0,0,0,0,0,0,0,0,0,0,0,0,0,5.3794,5.3794,5.3796,5.3796,5.3796,5.3798,5.3798,5.3798,5.3807,5.3808,5.3808,5.3808,5.3805,5.3804,5.3804,0,0,0,0,0,0,0,0,0,0,0,0,0,5.3795,5.3794,5.3796,5.3801,5.3801,5.3798,5.3798,5.3798,5.3807,5.3808,5.3808,5.3808,5.3805,5.3804,5.3804,5.3794,0,0,5.3802,5.3802,0,0,0,0,0,0,0,0,5.3795,5.3795,5.38,5.38,5.3801,5.3803,5.3796,5.3797,5.3807,5.3805,5.3808,5.3809,5.3803,5.3803,5.3802,5.3794,5.3794,5.3802,5.3802,5.3802,5.3802,0,0,0,0,0,0,0,5.3795,5.3795,5.3796,5.38,5.3801,5.3801,5.3802,5.3796,5.3802,5.3805,5.3806,5.3806,5.3804,5.3803,5.3802,5.3794,5.3802,5.3802,5.3802,5.3801,5.378,5.378,0,0,0,0,0,0,5.3795,5.3795,5.3796,5.3797,5.3799,5.3801,5.3802,5.3802,5.3802,5.3803,5.3806,5.3807,5.3804,5.3803,5.3802,5.3793,5.3802,5.3801,5.3801,5.378,5.378,5.3779,0,0,0,0,0,0,5.3795,5.3795,5.3796,5.3796,5.3796,5.3801,5.3801,5.3802,5.3801,5.3803,5.3803,5.3805,5.3804,5.3803,5.3797,5.3793,5.3801,5.3801,5.378,5.378,5.378,5.3773,0,0,0,0,0,0,5.3795,5.3795,5.3792,5.3796,5.3796,5.3792,5.3801,5.3802,5.3801,5.3802,5.3802,5.3802,5.3804,5.3798,5.3797,5.3792,5.38,5.3781,5.378,5.378,5.3773,5.3772,5.3771,0,0,0,0,0,5.3795,5.3788,5.3792,5.3792,5.3793,5.3792,5.3792,5.3796,5.3801,5.3798,5.3799,5.3802,5.3794,5.3797,5.3796,5.3791,5.3781,5.378,5.378,5.3774,5.3772,5.3771,0,0,0,0,0,0,5.378,5.3788,5.3793,5.3788,5.379,5.3794,5.379,5.3794,5.3793,5.3793,5.3797,5.3797,5.3791,5.379,5.3794,5.3783,5.3788,5.3787,5.3784,5.3782,5.3781,5.3781,5.38,0,0,0,0,0,5.3777,5.3777,5.3784,5.3778,5.3779,5.3785,5.3784,5.3788,5.3789,5.3789,5.3789,5.3789,5.3786,5.3784,5.3782,5.3773,5.3774,5.377,5.3769,5.3768,5.3767,5.3764,5.3762,5.3777,5.3777,5.3777,0,0,5.3769,5.3774,5.3773,5.3776,5.3778,5.3777,5.3785,5.3782,5.3782,5.3787,5.3783,5.3784,5.3783,5.3777,5.3774,5.3776,5.3763,5.3767,5.3766,5.3765,5.3763,5.3762,5.376,5.3777,5.3777,5.3777,0,0,5.3755,5.3759,5.3756,5.3758,5.3762,5.3766,5.3766,5.377,5.3771,5.3768,5.3773,5.3771,5.3766,5.3766,5.3765,5.3755,5.3757,5.3753,5.3747,5.3744,5.3743,5.3742,5.3739,5.3738,5.3752,5.3752,5.3752,0,5.3744,5.3745,5.3753,5.3752,5.3753,5.3762,5.3759,5.376,5.3761,5.3761,5.3765,5.3761,5.3761,5.3755,5.3753,5.3752,5.3751,5.3753,5.3743,5.3742,5.3741,5.3738,5.3737,5.3752,5.3752,5.3752,5.3752,0,5.3732,5.3733,5.373,5.3735,5.3736,5.3733,5.374,5.3739,5.3744,5.3747,5.3743,5.3744,5.3743,5.3742,5.3745,5.3738,5.3739,5.3743,5.3747,5.3739,5.3737,5.3736,5.3751,5.3751,5.3752,5.3752,0,0,5.3707,5.372,5.3718,5.3722,5.3728,5.3727,5.3726,5.3727,5.3727,5.3729,5.3727,5.3724,5.3729,5.3728,5.3731,5.3728,5.3722,5.3732,5.3732,5.3731,5.3715,5.3713,5.3711,5.3724,5.3724,5.3724,5.3715,0,5.3695,5.3695,5.3703,5.37,5.3701,5.371,5.3709,5.3712,5.3715,5.3716,5.3718,5.3717,5.3722,5.3722,5.372,5.3723,5.3718,5.3723,5.3722,5.3722,5.3722,5.371,5.3707,5.3699,5.3714,5.3714,5.3714,0,5.368,5.3684,5.3682,5.3691,5.3692,5.369,5.3694,5.3694,5.3698,5.3701,5.3702,5.3706,5.3704,5.371,5.3707,5.3711,5.371,5.3712,5.3712,5.3711,5.3717,5.371,5.3696,5.3695,5.3712,5.3712,5.3712,0,5.3663,5.3668,5.3668,5.3671,5.368,5.368,5.3683,5.3688,5.3689,5.3691,5.3692,5.3693,5.3694,5.3694,5.3699,5.3702,5.3696,5.3701,5.3698,5.3698,5.3695,5.3695,5.3682,5.3695,5.3695,5.3695,5.3695,0,5.3649,5.3647,5.3662,5.3661,5.366,5.367,5.3668,5.3672,5.3676,5.3677,5.3684,5.3683,5.369,5.369,5.3693,5.3691,5.3691,5.3693,5.3694,5.3693,5.3692,5.3692,5.3693,5.3695,5.3695,5.3695,5.3695,0,5.363,5.3639,5.364,5.3651,5.3653,5.3652,5.366,5.366,5.3666,5.3666,5.3666,5.3674,5.3675,5.368,5.3681,5.3683,5.368,5.3682,5.368,5.368,5.3677,5.3677,5.3663,5.3662,5.3675,5.3675,5.3675,0,5.362,5.3619,5.3631,5.3633,5.3638,5.364,5.3643,5.3652,5.3654,5.366,5.3659,5.3662,5.3664,5.3665,5.3669,5.367,5.3672,5.3668,5.3672,5.3672,5.3673,5.3673,5.3674,5.3666,5.3666,5.3666,5.3666,0,5.3602,5.3607,5.3612,5.3618,5.3622,5.3627,5.3632,5.3632,5.3643,5.3644,5.3647,5.3649,5.3653,5.3655,5.3657,5.3659,5.3664,5.3665,5.3664,5.3662,5.3662,5.3663,5.3677,5.3664,5.3665,5.3665,5.3665,5.3665,5.3587,5.3588,5.3598,5.3603,5.3608,5.3614,5.3615,5.3622,5.3625,5.363,5.3635,5.3638,5.3643,5.3647,5.365,5.3651,5.3653,5.3652,5.3652,5.3651,5.3651,5.3662,5.3651,5.3651,5.3651,5.3651,5.3651,0,5.357,5.3578,5.3582,5.3591,5.3595,5.3602,5.3609,5.3611,5.3614,5.362,5.3623,5.3627,5.363,5.3636,5.3639,5.3639,5.3641,5.3639,5.3639,5.364,5.3648,5.3649,5.3637,5.3637,5.3637,5.3637,5.3637,5.3637,5.3562,5.3565,5.3572,5.3578,5.3584,5.3589,5.3592,5.3597,5.3602,5.3607,5.361,5.3615,5.3621,5.3625,5.3628,5.3629,5.363,5.3628,5.363,5.3638,5.3639,5.364,5.3641,5.3628,5.3628,5.3621,5.3621,5.3621]}]]